Regional Weather Roundup
Issued by NWS

Home | Current Version | Previous Version | Graphics & Text | Print | Product List | Glossary On
Versions: 1 2 3 4 5 6 7 8 9 10 11 12 13 14 15 16 17 18 19 20 21 22 23 24 25 26 27 28 29 30 31 32 33 34 35 36 37 38 39 40 41 42 43 44 45 46 47 48 49 50
832
ASUS43 KLMK 261802
RWRKY
KENTUCKY REGIONAL WEATHER ROUNDUP
NATIONAL WEATHER SERVICE LOUISVILLE KY
200 PM EDT FRI MAY 26 2017

NOTE "FAIR" INDICATES FEW OR NO CLOUDS BELOW 12,000 FEET
WITH NO SIGNIFICANT WEATHER AND/OR OBSTRUCTIONS TO VISIBILITY.

KYZ001>023-026-027-061>063-070>075-261900-
WESTERN AND SOUTH CENTRAL KENTUCKY

CITY           SKY/WX    TMP DP  RH WIND       PRES   REMARKS
PADUCAH        SUNNY     85  51  31 S12G21    29.79F
HENDERSON      SUNNY     79  62  56 S17G24    29.82F
OWENSBORO      CLOUDY    79  65  62 S21       29.84F
HOPKINSVILLE   MOSUNNY   80  59  47 S17G23    29.87F
BOWLING GREEN  PTSUNNY   77  64  64 S10       29.91F
GLASGOW        NOT AVBL
$$

KYZ024-025-028>034-038-045-046-053-261900-
NORTH CENTRAL KENTUCKY

CITY           SKY/WX    TMP DP  RH WIND       PRES   REMARKS
LOUISVILLE/SDF PTSUNNY   77  60  55 S12       29.87F
LOUISVILLE/LOU MOSUNNY   77  61  57 S7        29.89F
FORT KNOX      CLOUDY    77  61  56 S10G18    29.86F
$$

KYZ035>037-039>044-047>052-055>060-089>105-261900-
NORTHEAST KENTUCKY

CITY           SKY/WX    TMP DP  RH WIND       PRES   REMARKS
LEXINGTON      SUNNY     75  55  49 SW15      29.95F
COVINGTON      PTSUNNY   75  57  53 SW7       29.91F
FRANKFORT      MOSUNNY   76  56  49 S9        29.92F
$$

KYZ054-064>069-076>088-106>120-261900-
SOUTHEAST KENTUCKY

CITY           SKY/WX    TMP DP  RH WIND       PRES   REMARKS
JACKSON        PTSUNNY   72  57  59 VRB6      30.00F
LONDON         MOSUNNY   75  52  44 SW8       30.00F
SOMERSET       NOT AVBL
MIDDLESBORO    NOT AVBL
MONTICELLO     PTCLDY    77  60  55 W10G20    30.00F
$$





USA.gov is the U.S. government's official web portal to all federal, state and local government web resources and services.